M I D A S
Marine Information and Data Acquisition System
Tripno 1020 of the Zeeleeuw from 2005-12-08 07:33:22 to 2005-12-08 15:37:49
Back to CruiseResearch ActivitiesStationsMapUnderway DataData graphs

EquipmentUnitsComments
TimeDGPSUTC
LatitudeDGPSDM.mWGS84
LongitudeDGPSDM.mWGS84
SpeedMeteo Stationm/sRelative wind speed
DirectionMeteo StationdegRelative wind direction
TemperatureMeteo Stationdeg CelciusAir temperature
PressureMeteo StationPaAtmospheric pressure
HumidityMeteo Station%Relative humidity
Missing or incorrect values are displayed as -999
Metereological data collected by the RV Zeeleeuw from 2005-12-08 07:25:07 to 2005-12-08 15:48:48
                                                                                    Next 1000 lines
Time Latitude Longitude Speed Direction Temperature Pressure Humidity
2005-12-08 07:25:17 51°13.597 2°56.096 -999 15 5.2 100970 92
2005-12-08 07:25:22 51°13.596 2°56.095 -999 9 5.2 100970 92
2005-12-08 07:25:27 51°13.596 2°56.094 -999 11 5.2 100970 92
2005-12-08 07:25:32 51°13.597 2°56.093 -999 17 5.2 100970 92
2005-12-08 07:25:37 51°13.597 2°56.091 -999 21 5.2 100970 92
2005-12-08 07:25:42 51°13.598 2°56.088 -999 18 5.2 100970 92
2005-12-08 07:25:47 51°13.599 2°56.085 -999 26 5.2 100970 92
2005-12-08 07:25:52 51°13.599 2°56.082 -999 17 5.2 100970 92
2005-12-08 07:25:57 51°13.6 2°56.079 -999 21 5.2 100970 92
2005-12-08 07:26:02 51°13.601 2°56.075 -999 28 5.2 100970 92
2005-12-08 07:26:07 51°13.602 2°56.072 -999 30 5.2 100970 92
2005-12-08 07:26:12 51°13.603 2°56.069 -999 21 5.2 100970 92
2005-12-08 07:26:18 51°13.604 2°56.065 -999 42 5.2 100970 92
2005-12-08 07:26:22 51°13.605 2°56.062 -999 38 5.2 100970 92
2005-12-08 07:26:27 51°13.606 2°56.058 -999 32 5.2 100970 92
2005-12-08 07:26:32 51°13.607 2°56.054 -999 26 5.2 100980 92
2005-12-08 07:26:37 51°13.608 2°56.05 -999 15 5.2 100980 92
2005-12-08 07:26:42 51°13.609 2°56.046 -999 29 5.2 100970 92
2005-12-08 07:26:47 51°13.611 2°56.041 -999 24 5.2 100970 92
2005-12-08 07:26:52 51°13.612 2°56.036 -999 14 5.2 100970 91
2005-12-08 07:26:57 51°13.613 2°56.031 -999 6 5.2 100970 91
2005-12-08 07:27:02 51°13.615 2°56.025 -999 20 5.2 100970 91
2005-12-08 07:27:07 51°13.616 2°56.019 -999 14 5.2 100970 91
2005-12-08 07:27:12 51°13.618 2°56.013 -999 7 5.2 100970 91
2005-12-08 07:27:17 51°13.619 2°56.007 -999 11 5.2 100970 91
2005-12-08 07:27:23 51°13.621 2°56 -999 343 5.2 100980 91
2005-12-08 07:27:27 51°13.623 2°55.994 -999 2 5.2 100980 91
2005-12-08 07:27:32 51°13.625 2°55.988 -999 22 5.2 100980 91
2005-12-08 07:27:38 51°13.627 2°55.98 -999 -999 5.2 100980 91
2005-12-08 07:27:43 51°13.629 2°55.974 -999 352 5.1 100970 91
2005-12-08 07:27:47 51°13.63 2°55.97 -999 347 5.1 100970 91
2005-12-08 07:27:53 51°13.632 2°55.963 -999 11 5.1 100980 91
2005-12-08 07:27:57 51°13.634 2°55.959 -999 13 5.1 100980 91
2005-12-08 07:28:02 51°13.635 2°55.953 -999 10 5.1 100980 91
2005-12-08 07:28:07 51°13.637 2°55.949 -999 352 5.1 100980 91
2005-12-08 07:28:12 51°13.639 2°55.944 -999 340 5.1 100980 91
2005-12-08 07:28:17 51°13.641 2°55.939 -999 12 5.1 100980 91
2005-12-08 07:28:22 51°13.642 2°55.934 -999 4 5.2 100970 91
2005-12-08 07:28:26 51°13.644 2°55.929 -999 -999 5.2 100970 91
2005-12-08 07:28:32 51°13.647 2°55.923 -999 3 5.2 100980 91
2005-12-08 07:28:37 51°13.65 2°55.916 -999 -999 5.2 100980 91
2005-12-08 07:28:42 51°13.652 2°55.91 -999 343 5.2 100980 91
2005-12-08 07:28:47 51°13.655 2°55.904 -999 345 5.2 100980 91
2005-12-08 07:28:52 51°13.659 2°55.897 -999 348 5.2 100980 91
2005-12-08 07:28:57 51°13.662 2°55.89 -999 346 5.2 100980 91
2005-12-08 07:29:02 51°13.666 2°55.884 -999 351 5.1 100980 91
2005-12-08 07:29:08 51°13.671 2°55.875 -999 355 5.1 100980 91
2005-12-08 07:29:12 51°13.674 2°55.869 -999 356 5.1 100980 91
2005-12-08 07:29:18 51°13.68 2°55.86 -999 1 5.1 100980 91
2005-12-08 07:29:22 51°13.683 2°55.854 -999 342 5.1 100980 91
2005-12-08 07:29:28 51°13.689 2°55.845 -999 338 5.1 100980 91
2005-12-08 07:29:32 51°13.693 2°55.839 -999 355 5.2 100980 91
2005-12-08 07:29:37 51°13.698 2°55.831 -999 359 5.2 100980 91
2005-12-08 07:29:42 51°13.704 2°55.823 -999 351 5.2 100980 91
2005-12-08 07:29:47 51°13.709 2°55.815 -999 342 5.2 100980 91
2005-12-08 07:29:52 51°13.714 2°55.807 -999 1 5.2 100980 91
2005-12-08 07:29:57 51°13.719 2°55.799 -999 18 5.2 100980 91
2005-12-08 07:30:03 51°13.725 2°55.788 -999 13 5.2 100980 91
2005-12-08 07:30:08 51°13.73 2°55.779 -999 11 5.2 100980 91
2005-12-08 07:30:13 51°13.735 2°55.77 -999 7 5.1 100980 91
2005-12-08 07:30:18 51°13.74 2°55.761 -999 7 5.1 100980 91
2005-12-08 07:30:22 51°13.744 2°55.754 -999 2 5.1 100980 91
2005-12-08 07:30:28 51°13.75 2°55.743 -999 5 5.1 100980 91
2005-12-08 07:30:32 51°13.754 2°55.736 -999 7 5.2 100980 91
2005-12-08 07:30:37 51°13.76 2°55.727 -999 6 5.2 100980 91
2005-12-08 07:30:42 51°13.765 2°55.718 -999 4 5.2 100980 91
2005-12-08 07:30:47 51°13.77 2°55.709 -999 356 5.2 100980 91
2005-12-08 07:30:53 51°13.776 2°55.699 -999 350 5.1 100980 91
2005-12-08 07:30:58 51°13.782 2°55.691 -999 357 5.1 100980 91
2005-12-08 07:31:02 51°13.786 2°55.685 -999 344 5.1 100980 91
2005-12-08 07:31:07 51°13.792 2°55.677 -999 317 5.1 100980 91
2005-12-08 07:31:12 51°13.798 2°55.67 -999 318 5.1 100980 91
2005-12-08 07:31:17 51°13.804 2°55.662 -999 6 5.1 100980 91
2005-12-08 07:31:22 51°13.811 2°55.655 -999 356 5.2 100980 91
2005-12-08 07:31:27 51°13.818 2°55.649 -999 343 5.2 100980 91
2005-12-08 07:31:32 51°13.825 2°55.643 -999 345 5.2 100990 91
2005-12-08 07:31:37 51°13.832 2°55.639 -999 316 5.2 100990 91
2005-12-08 07:31:42 51°13.84 2°55.635 -999 272 5.2 100990 91
2005-12-08 07:31:47 51°13.847 2°55.632 -999 282 5.2 100990 91
2005-12-08 07:31:52 51°13.855 2°55.629 -999 279 5.2 100990 91
2005-12-08 07:31:57 51°13.863 2°55.628 -999 290 5.2 100990 91
2005-12-08 07:32:02 51°13.871 2°55.627 -999 277 5.2 100990 91
2005-12-08 07:32:08 51°13.88 2°55.628 -999 271 5.2 100990 91
2005-12-08 07:32:12 51°13.886 2°55.629 -999 261 5.2 100990 91
2005-12-08 07:32:17 51°13.894 2°55.63 -999 270 5.2 100990 91
2005-12-08 07:32:22 51°13.901 2°55.632 -999 249 5.2 100990 91
2005-12-08 07:32:27 51°13.908 2°55.635 -999 244 5.2 100990 91
2005-12-08 07:32:33 51°13.916 2°55.638 -999 246 5.2 100990 91
2005-12-08 07:32:37 51°13.921 2°55.641 -999 262 5.2 100990 91
2005-12-08 07:32:42 51°13.926 2°55.644 -999 255 5.2 100990 91
2005-12-08 07:32:47 51°13.932 2°55.647 -999 259 5.2 100990 91
2005-12-08 07:32:52 51°13.936 2°55.65 -999 255 5.2 100990 91
2005-12-08 07:32:57 51°13.939 2°55.652 -999 258 5.2 100990 91
2005-12-08 07:33:01 51°13.941 2°55.653 -999 253 5.2 100990 91
2005-12-08 07:33:07 51°13.942 2°55.653 -999 255 5.2 100990 91
2005-12-08 07:33:12 51°13.943 2°55.652 -999 262 5.2 100990 91
2005-12-08 07:33:17 51°13.943 2°55.649 -999 261 5.2 100990 91
2005-12-08 07:33:22 51°13.943 2°55.645 -999 241 5.2 100990 91
2005-12-08 07:33:27 51°13.943 2°55.639 -999 235 5.2 100990 91
2005-12-08 07:33:32 51°13.943 2°55.632 -999 227 5.2 100990 91
2005-12-08 07:33:37 51°13.945 2°55.623 -999 210 5.2 100990 91
2005-12-08 07:33:42 51°13.947 2°55.614 -999 208 5.2 100990 91
2005-12-08 07:33:46 51°13.95 2°55.607 -999 176 5.2 100990 91
2005-12-08 07:33:52 51°13.956 2°55.596 -999 166 5.2 100990 91
2005-12-08 07:33:57 51°13.962 2°55.587 -999 185 5.2 100990 91
2005-12-08 07:34:02 51°13.968 2°55.577 -999 179 5.2 100990 91
2005-12-08 07:34:07 51°13.975 2°55.567 -999 174 5.2 100990 91
2005-12-08 07:34:12 51°13.983 2°55.556 -999 162 5.2 100990 91
2005-12-08 07:34:17 51°13.992 2°55.545 -999 164 5.2 100990 91
2005-12-08 07:34:22 51°14.001 2°55.534 -999 144 5.2 100980 91
2005-12-08 07:34:27 51°14.011 2°55.522 -999 149 5.2 100980 91
2005-12-08 07:34:32 51°14.021 2°55.511 -999 141 5.2 100990 91
2005-12-08 07:34:37 51°14.031 2°55.5 -999 132 5.2 100990 91
2005-12-08 07:34:42 51°14.042 2°55.489 -999 118 5.3 100990 91
2005-12-08 07:34:47 51°14.054 2°55.48 -999 105 5.3 100990 91
2005-12-08 07:34:52 51°14.065 2°55.47 -999 122 5.3 100990 91
2005-12-08 07:34:57 51°14.077 2°55.46 -999 126 5.3 100990 91
2005-12-08 07:35:01 51°14.087 2°55.452 -999 101 5.3 100990 91
2005-12-08 07:35:06 51°14.099 2°55.441 -999 115 5.3 100990 91
2005-12-08 07:35:12 51°14.114 2°55.428 -999 125 5.3 100990 91
2005-12-08 07:35:17 51°14.127 2°55.418 -999 126 5.3 100990 91
2005-12-08 07:35:22 51°14.139 2°55.408 -999 86 5.3 100990 90
2005-12-08 07:35:27 51°14.152 2°55.397 -999 91 5.3 100990 90
2005-12-08 07:35:32 51°14.164 2°55.385 -999 89 5.3 100990 90
2005-12-08 07:35:37 51°14.176 2°55.372 -999 87 5.3 100990 90
2005-12-08 07:35:42 51°14.189 2°55.359 -999 111 5.3 100990 90
2005-12-08 07:35:46 51°14.199 2°55.348 -999 113 5.3 100990 90
2005-12-08 07:35:52 51°14.213 2°55.33 -999 78 5.3 100990 90
2005-12-08 07:35:57 51°14.225 2°55.313 -999 112 5.3 100990 90
2005-12-08 07:36:02 51°14.237 2°55.296 -999 107 5.3 100990 90
2005-12-08 07:36:07 51°14.248 2°55.278 -999 107 5.3 100990 90
2005-12-08 07:36:11 51°14.257 2°55.263 -999 115 5.3 100990 90
2005-12-08 07:36:17 51°14.27 2°55.24 -999 118 5.3 100990 90
2005-12-08 07:36:22 51°14.281 2°55.22 -999 126 5.3 100990 90
2005-12-08 07:36:26 51°14.289 2°55.204 -999 152 5.3 100990 90
2005-12-08 07:36:32 51°14.302 2°55.179 -999 143 5.3 100990 90
2005-12-08 07:36:37 51°14.312 2°55.157 -999 149 5.3 100990 90
2005-12-08 07:36:41 51°14.32 2°55.14 -999 154 5.3 100990 90
2005-12-08 07:36:47 51°14.333 2°55.116 -999 152 5.3 100990 90
2005-12-08 07:36:52 51°14.344 2°55.097 -999 143 5.3 100990 90
2005-12-08 07:36:57 51°14.356 2°55.079 -999 151 5.3 100990 90
2005-12-08 07:37:01 51°14.366 2°55.065 -999 143 5.3 101000 90
2005-12-08 07:37:07 51°14.382 2°55.046 -999 131 5.3 101000 90
2005-12-08 07:37:12 51°14.395 2°55.031 -999 94 5.3 100990 90
2005-12-08 07:37:17 51°14.409 2°55.016 -999 121 5.3 100990 90
2005-12-08 07:37:22 51°14.422 2°55.002 -999 100 5.3 101000 90
2005-12-08 07:37:27 51°14.436 2°54.987 -999 99 5.3 101000 90
2005-12-08 07:37:32 51°14.449 2°54.973 -999 126 5.3 100990 90
2005-12-08 07:37:37 51°14.463 2°54.959 -999 154 5.3 100990 90
2005-12-08 07:37:42 51°14.478 2°54.945 -999 135 5.3 100990 90
2005-12-08 07:37:47 51°14.492 2°54.932 -999 155 5.3 100990 90
2005-12-08 07:37:52 51°14.507 2°54.918 -999 44 5.3 100990 90
2005-12-08 07:37:57 51°14.522 2°54.904 -999 90 5.3 100990 90
2005-12-08 07:38:02 51°14.537 2°54.89 -999 116 5.2 100970 90
2005-12-08 07:38:07 51°14.553 2°54.875 -999 95 5.2 100970 90
2005-12-08 07:38:12 51°14.568 2°54.86 -999 95 5.2 100970 90
2005-12-08 07:38:17 51°14.583 2°54.844 -999 79 5.2 100970 90
2005-12-08 07:38:22 51°14.598 2°54.829 -999 81 5.2 100970 90
2005-12-08 07:38:27 51°14.614 2°54.813 -999 102 5.2 100970 90
2005-12-08 07:38:32 51°14.63 2°54.798 -999 99 5.2 101000 90
2005-12-08 07:38:37 51°14.646 2°54.783 -999 95 5.2 101000 90
2005-12-08 07:38:42 51°14.661 2°54.768 -999 110 5.3 100960 90
2005-12-08 07:38:47 51°14.677 2°54.753 -999 116 5.3 100960 90
2005-12-08 07:38:52 51°14.693 2°54.738 -999 120 5.3 100960 90
2005-12-08 07:38:57 51°14.708 2°54.723 -999 93 5.3 100960 90
2005-12-08 07:39:02 51°14.724 2°54.708 -999 96 5.2 100960 90
2005-12-08 07:39:07 51°14.74 2°54.692 -999 96 5.2 100960 90
2005-12-08 07:39:12 51°14.755 2°54.677 -999 112 5.2 100960 90
2005-12-08 07:39:17 51°14.772 2°54.663 -999 112 5.2 100960 90
2005-12-08 07:39:22 51°14.787 2°54.649 -999 114 5.3 100970 90
2005-12-08 07:39:27 51°14.804 2°54.636 -999 115 5.3 100970 90
2005-12-08 07:39:32 51°14.82 2°54.623 -999 115 5.3 100960 90
2005-12-08 07:39:37 51°14.837 2°54.61 -999 120 5.3 100960 90
2005-12-08 07:39:42 51°14.853 2°54.597 -999 125 5.3 100970 90
2005-12-08 07:39:46 51°14.866 2°54.587 -999 117 5.3 100970 90
2005-12-08 07:39:52 51°14.886 2°54.572 -999 115 5.3 100960 90
2005-12-08 07:39:57 51°14.903 2°54.56 -999 106 5.3 100960 90
2005-12-08 07:40:02 51°14.92 2°54.549 -999 89 5.3 100960 90
2005-12-08 07:40:07 51°14.938 2°54.539 -999 91 5.3 100960 90
2005-12-08 07:40:12 51°14.955 2°54.528 -999 100 5.3 100960 90
2005-12-08 07:40:17 51°14.972 2°54.518 -999 91 5.3 100960 90
2005-12-08 07:40:22 51°14.99 2°54.509 -999 100 5.3 100970 90
2005-12-08 07:40:27 51°15.007 2°54.5 -999 104 5.3 100970 90
2005-12-08 07:40:31 51°15.021 2°54.492 -999 95 5.3 100970 90
2005-12-08 07:40:37 51°15.042 2°54.48 -999 102 5.3 100970 90
2005-12-08 07:40:42 51°15.06 2°54.47 -999 112 5.3 100960 90
2005-12-08 07:40:46 51°15.074 2°54.462 -999 114 5.3 100960 90
2005-12-08 07:40:52 51°15.095 2°54.451 -999 94 5.3 100960 90
2005-12-08 07:40:57 51°15.112 2°54.441 -999 86 5.3 100960 90
2005-12-08 07:41:02 51°15.13 2°54.431 -999 102 5.3 100990 90
2005-12-08 07:41:07 51°15.147 2°54.421 -999 110 5.3 100990 90
2005-12-08 07:41:12 51°15.165 2°54.411 -999 102 5.3 100990 90
2005-12-08 07:41:17 51°15.182 2°54.401 -999 99 5.3 100990 90
2005-12-08 07:41:22 51°15.199 2°54.39 -999 114 5.3 100990 90
2005-12-08 07:41:27 51°15.217 2°54.379 -999 110 5.3 100990 90
2005-12-08 07:41:32 51°15.234 2°54.368 -999 123 5.3 101000 90
2005-12-08 07:41:37 51°15.251 2°54.357 -999 106 5.3 101000 90
2005-12-08 07:41:42 51°15.268 2°54.345 -999 93 5.4 100990 90
2005-12-08 07:41:47 51°15.285 2°54.333 -999 90 5.4 100990 90
2005-12-08 07:41:52 51°15.302 2°54.322 -999 103 5.3 100990 90
2005-12-08 07:41:57 51°15.319 2°54.31 -999 100 5.3 100990 90
2005-12-08 07:42:02 51°15.337 2°54.299 -999 93 5.3 101010 90
2005-12-08 07:42:06 51°15.35 2°54.29 -999 98 5.3 101010 90
2005-12-08 07:42:12 51°15.371 2°54.277 -999 112 5.4 101000 90
2005-12-08 07:42:17 51°15.388 2°54.266 -999 93 5.4 101000 90
2005-12-08 07:42:22 51°15.406 2°54.254 -999 98 5.3 100990 90
2005-12-08 07:42:26 51°15.419 2°54.245 -999 93 5.3 100990 90
2005-12-08 07:42:32 51°15.44 2°54.232 -999 117 5.3 101000 90
2005-12-08 07:42:37 51°15.457 2°54.22 -999 116 5.3 101000 90
2005-12-08 07:42:42 51°15.474 2°54.209 -999 111 5.3 101010 90
2005-12-08 07:42:47 51°15.492 2°54.198 -999 110 5.3 101010 90
2005-12-08 07:42:52 51°15.509 2°54.187 -999 115 5.4 100970 91
2005-12-08 07:42:57 51°15.526 2°54.176 -999 102 5.4 100970 91
2005-12-08 07:43:02 51°15.544 2°54.165 -999 79 5.4 100970 91
2005-12-08 07:43:07 51°15.561 2°54.154 -999 93 5.4 100970 91
2005-12-08 07:43:12 51°15.579 2°54.143 -999 92 5.4 100970 91
2005-12-08 07:43:17 51°15.596 2°54.132 -999 94 5.4 100970 91
2005-12-08 07:43:22 51°15.613 2°54.121 -999 107 5.4 100970 90
2005-12-08 07:43:27 51°15.631 2°54.11 -999 97 5.4 100970 90
2005-12-08 07:43:32 51°15.648 2°54.099 -999 91 5.4 100970 91
2005-12-08 07:43:37 51°15.666 2°54.088 -999 103 5.4 100970 91
2005-12-08 07:43:42 51°15.684 2°54.077 -999 104 5.4 100980 91
2005-12-08 07:43:47 51°15.701 2°54.066 -999 106 5.4 100980 91
2005-12-08 07:43:52 51°15.718 2°54.055 -999 83 5.4 100970 91
2005-12-08 07:43:57 51°15.736 2°54.044 -999 102 5.4 100970 91
2005-12-08 07:44:02 51°15.753 2°54.033 -999 99 5.4 100970 91
2005-12-08 07:44:07 51°15.771 2°54.022 -999 91 5.4 100970 91
2005-12-08 07:44:12 51°15.788 2°54.011 -999 85 5.4 100970 91
2005-12-08 07:44:17 51°15.806 2°53.999 -999 106 5.4 100970 91
2005-12-08 07:44:22 51°15.823 2°53.988 -999 100 5.4 100970 90
2005-12-08 07:44:27 51°15.84 2°53.977 -999 108 5.4 100970 90
2005-12-08 07:44:32 51°15.858 2°53.966 -999 113 5.4 100980 90
2005-12-08 07:44:37 51°15.876 2°53.955 -999 114 5.4 100980 90
2005-12-08 07:44:42 51°15.893 2°53.944 -999 97 5.4 100980 90
2005-12-08 07:44:47 51°15.911 2°53.933 -999 98 5.4 100980 90
2005-12-08 07:44:52 51°15.928 2°53.922 -999 109 5.4 100980 90
2005-12-08 07:44:57 51°15.946 2°53.911 -999 115 5.4 100980 90
2005-12-08 07:45:02 51°15.963 2°53.9 -999 100 5.4 100970 90
2005-12-08 07:45:07 51°15.981 2°53.889 -999 101 5.4 100970 90
2005-12-08 07:45:12 51°15.999 2°53.878 -999 95 5.4 100980 91
2005-12-08 07:45:17 51°16.016 2°53.867 -999 92 5.4 100980 91
2005-12-08 07:45:22 51°16.034 2°53.856 -999 90 5.4 100980 91
2005-12-08 07:45:26 51°16.048 2°53.848 -999 105 5.4 100980 91
2005-12-08 07:45:32 51°16.069 2°53.834 -999 104 5.4 100980 91
2005-12-08 07:45:37 51°16.086 2°53.823 -999 89 5.4 100980 91
2005-12-08 07:45:42 51°16.104 2°53.812 -999 108 5.4 100980 91
2005-12-08 07:45:47 51°16.121 2°53.801 -999 98 5.4 100980 91
2005-12-08 07:45:52 51°16.139 2°53.789 -999 98 5.4 100980 91
2005-12-08 07:45:57 51°16.156 2°53.778 -999 108 5.4 100980 91
2005-12-08 07:46:02 51°16.174 2°53.767 -999 101 5.4 100980 91
2005-12-08 07:46:07 51°16.191 2°53.757 -999 112 5.4 100980 91
2005-12-08 07:46:12 51°16.209 2°53.746 -999 121 5.4 100970 91
2005-12-08 07:46:17 51°16.226 2°53.735 -999 123 5.4 100970 91
2005-12-08 07:46:22 51°16.244 2°53.725 -999 115 5.4 100980 91
2005-12-08 07:46:27 51°16.262 2°53.714 -999 108 5.4 100980 91
2005-12-08 07:46:32 51°16.279 2°53.704 -999 106 5.4 100970 91
2005-12-08 07:46:37 51°16.296 2°53.693 -999 94 5.4 100970 91
2005-12-08 07:46:42 51°16.314 2°53.682 -999 92 5.4 100970 91
2005-12-08 07:46:47 51°16.332 2°53.671 -999 105 5.4 100970 91
2005-12-08 07:46:52 51°16.349 2°53.66 -999 110 5.4 100990 90
2005-12-08 07:46:57 51°16.367 2°53.649 -999 122 5.4 100990 90
2005-12-08 07:47:02 51°16.384 2°53.639 -999 101 5.4 100980 91
2005-12-08 07:47:07 51°16.402 2°53.628 -999 100 5.4 100980 91
2005-12-08 07:47:12 51°16.419 2°53.617 -999 108 5.4 100970 91
2005-12-08 07:47:17 51°16.437 2°53.606 -999 106 5.4 100970 91
2005-12-08 07:47:22 51°16.454 2°53.595 -999 99 5.4 100980 91
2005-12-08 07:47:27 51°16.472 2°53.584 -999 104 5.4 100980 91
2005-12-08 07:47:31 51°16.486 2°53.575 -999 100 5.5 100980 91
2005-12-08 07:47:37 51°16.507 2°53.562 -999 98 5.5 100980 91
2005-12-08 07:47:42 51°16.525 2°53.552 -999 110 5.5 100980 91
2005-12-08 07:47:46 51°16.539 2°53.543 -999 102 5.5 100980 91
2005-12-08 07:47:52 51°16.56 2°53.53 -999 108 5.5 100990 91
2005-12-08 07:47:57 51°16.577 2°53.52 -999 111 5.5 100990 91
2005-12-08 07:48:02 51°16.595 2°53.509 -999 116 5.5 100980 91
2005-12-08 07:48:07 51°16.612 2°53.498 -999 113 5.5 100980 91
2005-12-08 07:48:12 51°16.63 2°53.488 -999 109 5.5 100980 91
2005-12-08 07:48:17 51°16.648 2°53.477 -999 104 5.5 100980 91
2005-12-08 07:48:22 51°16.665 2°53.466 -999 100 5.4 100980 91
2005-12-08 07:48:27 51°16.683 2°53.456 -999 107 5.4 100980 91
2005-12-08 07:48:32 51°16.7 2°53.445 -999 110 5.4 100980 91
2005-12-08 07:48:37 51°16.718 2°53.435 -999 108 5.4 100980 91
2005-12-08 07:48:42 51°16.736 2°53.424 -999 106 5.4 100990 91
2005-12-08 07:48:46 51°16.75 2°53.417 -999 103 5.4 100990 91
2005-12-08 07:48:52 51°16.772 2°53.405 -999 104 5.5 100990 91
2005-12-08 07:48:57 51°16.79 2°53.397 -999 112 5.5 100990 91
2005-12-08 07:49:02 51°16.808 2°53.388 -999 89 5.5 100980 91
2005-12-08 07:49:06 51°16.822 2°53.381 -999 89 5.5 100980 91
2005-12-08 07:49:12 51°16.844 2°53.371 -999 96 5.5 100990 91
2005-12-08 07:49:17 51°16.862 2°53.362 -999 101 5.5 100990 91
2005-12-08 07:49:22 51°16.88 2°53.353 -999 106 5.5 100980 91
2005-12-08 07:49:27 51°16.897 2°53.344 -999 116 5.5 100980 91
2005-12-08 07:49:32 51°16.915 2°53.336 -999 111 5.5 100980 91
2005-12-08 07:49:37 51°16.932 2°53.327 -999 107 5.5 100980 91
2005-12-08 07:49:42 51°16.95 2°53.319 -999 116 5.5 100980 91
2005-12-08 07:49:47 51°16.968 2°53.31 -999 111 5.5 100980 91
2005-12-08 07:49:52 51°16.985 2°53.302 -999 111 5.5 100980 91
2005-12-08 07:49:57 51°17.003 2°53.294 -999 102 5.5 100980 91
2005-12-08 07:50:02 51°17.021 2°53.287 -999 100 5.5 100980 91
2005-12-08 07:50:07 51°17.039 2°53.282 -999 102 5.5 100980 91
2005-12-08 07:50:12 51°17.058 2°53.277 -999 95 5.5 100990 91
2005-12-08 07:50:17 51°17.076 2°53.273 -999 102 5.5 100990 91
2005-12-08 07:50:22 51°17.095 2°53.27 -999 97 5.4 100990 91
2005-12-08 07:50:27 51°17.114 2°53.266 -999 96 5.4 100990 91
2005-12-08 07:50:32 51°17.133 2°53.264 -999 93 5.4 100980 91
2005-12-08 07:50:37 51°17.152 2°53.262 -999 81 5.4 100980 91
2005-12-08 07:50:41 51°17.167 2°53.261 -999 89 5.4 100980 91
2005-12-08 07:50:47 51°17.19 2°53.259 -999 88 5.4 100980 91
2005-12-08 07:50:52 51°17.209 2°53.259 -999 87 5.4 100980 90
2005-12-08 07:50:57 51°17.228 2°53.258 -999 87 5.4 100980 90
2005-12-08 07:51:01 51°17.243 2°53.258 -999 87 5.5 100990 91
2005-12-08 07:51:07 51°17.266 2°53.258 -999 99 5.5 100990 91
2005-12-08 07:51:12 51°17.285 2°53.257 -999 96 5.5 100980 91
2005-12-08 07:51:17 51°17.304 2°53.256 -999 97 5.5 100980 91
2005-12-08 07:51:22 51°17.323 2°53.256 -999 81 5.5 100980 91
2005-12-08 07:51:27 51°17.342 2°53.256 -999 86 5.5 100980 91
2005-12-08 07:51:32 51°17.361 2°53.254 -999 85 5.5 100970 91
2005-12-08 07:51:37 51°17.38 2°53.254 -999 89 5.5 100970 91
2005-12-08 07:51:42 51°17.399 2°53.254 -999 88 5.5 100980 91
2005-12-08 07:51:47 51°17.418 2°53.255 -999 86 5.5 100980 91
2005-12-08 07:51:52 51°17.437 2°53.257 -999 89 5.5 100980 91
2005-12-08 07:51:57 51°17.456 2°53.26 -999 87 5.5 100980 91
2005-12-08 07:52:02 51°17.475 2°53.263 -999 81 5.5 100990 91
2005-12-08 07:52:07 51°17.494 2°53.267 -999 83 5.5 100990 91
2005-12-08 07:52:12 51°17.513 2°53.271 -999 86 5.5 100980 91
2005-12-08 07:52:17 51°17.531 2°53.277 -999 79 5.5 100980 91
2005-12-08 07:52:22 51°17.55 2°53.284 -999 73 5.6 100980 92
2005-12-08 07:52:27 51°17.568 2°53.291 -999 77 5.6 100980 92
2005-12-08 07:52:32 51°17.586 2°53.3 -999 80 5.6 100980 92
2005-12-08 07:52:37 51°17.605 2°53.308 -999 83 5.6 100980 92
2005-12-08 07:52:42 51°17.623 2°53.317 -999 78 5.6 100970 91
2005-12-08 07:52:47 51°17.641 2°53.327 -999 66 5.6 100970 91
2005-12-08 07:52:52 51°17.659 2°53.337 -999 60 5.6 100970 91
2005-12-08 07:52:57 51°17.676 2°53.349 -999 73 5.6 100970 91
2005-12-08 07:53:02 51°17.694 2°53.36 -999 65 5.5 100970 91
2005-12-08 07:53:07 51°17.712 2°53.372 -999 66 5.5 100970 91
2005-12-08 07:53:12 51°17.729 2°53.384 -999 63 5.6 100980 92
2005-12-08 07:53:16 51°17.742 2°53.395 -999 65 5.6 100980 92
2005-12-08 07:53:22 51°17.763 2°53.411 -999 63 5.6 100970 92
2005-12-08 07:53:27 51°17.779 2°53.426 -999 69 5.6 100970 92
2005-12-08 07:53:32 51°17.795 2°53.442 -999 74 5.6 100970 92
2005-12-08 07:53:37 51°17.812 2°53.457 -999 65 5.6 100970 92
2005-12-08 07:53:42 51°17.828 2°53.473 -999 59 5.6 100970 92
2005-12-08 07:53:46 51°17.84 2°53.486 -999 58 5.6 100970 92
2005-12-08 07:53:52 51°17.86 2°53.506 -999 59 5.6 100970 91
2005-12-08 07:53:57 51°17.876 2°53.521 -999 67 5.6 100970 91
2005-12-08 07:54:02 51°17.892 2°53.537 -999 72 5.6 100970 91
2005-12-08 07:54:07 51°17.908 2°53.553 -999 62 5.6 100970 91
2005-12-08 07:54:12 51°17.924 2°53.569 -999 62 5.6 100970 92
2005-12-08 07:54:17 51°17.94 2°53.585 -999 62 5.6 100970 92
2005-12-08 07:54:22 51°17.956 2°53.6 -999 65 5.6 100960 91
2005-12-08 07:54:26 51°17.969 2°53.613 -999 67 5.6 100960 91
2005-12-08 07:54:32 51°17.989 2°53.631 -999 66 5.6 100950 91
2005-12-08 07:54:37 51°18.005 2°53.648 -999 66 5.6 100950 91
2005-12-08 07:54:42 51°18.021 2°53.663 -999 59 5.6 100960 92
2005-12-08 07:54:47 51°18.037 2°53.679 -999 54 5.6 100960 92
2005-12-08 07:54:52 51°18.053 2°53.695 -999 60 5.6 100960 91
2005-12-08 07:54:57 51°18.069 2°53.713 -999 58 5.6 100960 91
2005-12-08 07:55:02 51°18.084 2°53.73 -999 64 5.6 100960 91
2005-12-08 07:55:07 51°18.099 2°53.749 -999 60 5.6 100960 91
2005-12-08 07:55:12 51°18.114 2°53.767 -999 60 5.6 100970 91
2005-12-08 07:55:17 51°18.128 2°53.787 -999 61 5.6 100970 91
2005-12-08 07:55:22 51°18.143 2°53.806 -999 62 5.6 100980 91
2005-12-08 07:55:27 51°18.157 2°53.826 -999 61 5.6 100980 91
2005-12-08 07:55:32 51°18.172 2°53.845 -999 65 5.6 100970 91
2005-12-08 07:55:37 51°18.185 2°53.866 -999 54 5.6 100970 91
2005-12-08 07:55:42 51°18.2 2°53.885 -999 58 5.6 100980 92
2005-12-08 07:55:47 51°18.215 2°53.906 -999 57 5.6 100980 92
2005-12-08 07:55:52 51°18.229 2°53.925 -999 57 5.6 100970 91
2005-12-08 07:55:57 51°18.243 2°53.945 -999 59 5.6 100970 91
2005-12-08 07:56:02 51°18.258 2°53.964 -999 59 5.5 100980 91
2005-12-08 07:56:07 51°18.272 2°53.984 -999 60 5.5 100980 91
2005-12-08 07:56:12 51°18.287 2°54.003 -999 -999 5.5 100980 91
2005-12-08 07:56:17 51°18.301 2°54.024 -999 69 5.5 100980 91
2005-12-08 07:56:22 51°18.315 2°54.042 -999 64 5.6 100980 91
2005-12-08 07:56:27 51°18.329 2°54.063 -999 60 5.6 100980 91
2005-12-08 07:56:32 51°18.344 2°54.082 -999 60 5.5 100970 91
2005-12-08 07:56:37 51°18.359 2°54.102 -999 61 5.5 100970 91
2005-12-08 07:56:42 51°18.373 2°54.12 -999 61 5.5 100980 91
2005-12-08 07:56:47 51°18.388 2°54.14 -999 61 5.6 100980 91
2005-12-08 07:56:52 51°18.402 2°54.16 -999 63 5.6 100980 91
2005-12-08 07:56:56 51°18.414 2°54.176 -999 62 5.6 100980 92
2005-12-08 07:57:02 51°18.431 2°54.199 -999 58 5.6 100980 92
2005-12-08 07:57:07 51°18.446 2°54.218 -999 59 5.6 100980 92
2005-12-08 07:57:12 51°18.461 2°54.237 -999 59 5.6 100980 92
2005-12-08 07:57:17 51°18.475 2°54.257 -999 64 5.6 100970 91
2005-12-08 07:57:22 51°18.49 2°54.276 -999 53 5.6 100970 91
2005-12-08 07:57:27 51°18.505 2°54.296 -999 58 5.6 100970 91
2005-12-08 07:57:32 51°18.519 2°54.314 -999 56 5.6 100970 91
2005-12-08 07:57:37 51°18.534 2°54.334 -999 60 5.5 100980 91
2005-12-08 07:57:42 51°18.549 2°54.353 -999 61 5.5 100980 91
2005-12-08 07:57:46 51°18.56 2°54.369 -999 60 5.6 100980 91
2005-12-08 07:57:52 51°18.578 2°54.392 -999 59 5.6 100980 91
2005-12-08 07:57:57 51°18.592 2°54.411 -999 61 5.6 100990 91
2005-12-08 07:58:02 51°18.606 2°54.43 -999 62 5.6 100990 91
2005-12-08 07:58:06 51°18.618 2°54.446 -999 65 5.6 100980 91
2005-12-08 07:58:12 51°18.636 2°54.468 -999 61 5.6 100980 91
2005-12-08 07:58:17 51°18.651 2°54.488 -999 61 5.5 100970 91
2005-12-08 07:58:22 51°18.665 2°54.507 -999 61 5.5 100970 91
2005-12-08 07:58:27 51°18.68 2°54.526 -999 62 5.5 100970 91
2005-12-08 07:58:32 51°18.695 2°54.545 -999 58 5.5 100970 91
2005-12-08 07:58:37 51°18.709 2°54.564 -999 56 5.5 100990 91
2005-12-08 07:58:42 51°18.724 2°54.584 -999 58 5.5 100990 91
2005-12-08 07:58:47 51°18.739 2°54.603 -999 58 5.5 100980 91
2005-12-08 07:58:52 51°18.753 2°54.622 -999 59 5.5 100980 91
2005-12-08 07:58:57 51°18.768 2°54.641 -999 57 5.6 100980 91
2005-12-08 07:59:02 51°18.782 2°54.66 -999 62 5.6 100980 91
2005-12-08 07:59:07 51°18.797 2°54.678 -999 61 5.5 100980 91
2005-12-08 07:59:12 51°18.812 2°54.697 -999 63 5.5 100980 91
2005-12-08 07:59:17 51°18.826 2°54.715 -999 57 5.5 100980 91
2005-12-08 07:59:22 51°18.841 2°54.734 -999 61 5.5 100980 91
2005-12-08 07:59:27 51°18.855 2°54.753 -999 65 5.5 100980 91
2005-12-08 07:59:32 51°18.87 2°54.772 -999 61 5.5 100980 91
2005-12-08 07:59:37 51°18.884 2°54.791 -999 63 5.5 100980 91
2005-12-08 07:59:42 51°18.899 2°54.809 -999 62 5.5 100980 91
2005-12-08 07:59:47 51°18.914 2°54.828 -999 63 5.5 100980 91
2005-12-08 07:59:52 51°18.928 2°54.847 -999 60 5.5 100980 91
2005-12-08 07:59:57 51°18.943 2°54.867 -999 57 5.5 100980 91
2005-12-08 08:00:02 51°18.957 2°54.885 -999 66 5.5 100980 91
2005-12-08 08:00:07 51°18.972 2°54.904 -999 58 5.5 100980 91
2005-12-08 08:00:12 51°18.987 2°54.922 -999 70 5.5 100980 91
2005-12-08 08:00:17 51°19.001 2°54.941 -999 62 5.5 100980 91
2005-12-08 08:00:22 51°19.016 2°54.959 -999 69 5.5 100980 91
2005-12-08 08:00:27 51°19.03 2°54.979 -999 62 5.5 100980 91
2005-12-08 08:00:32 51°19.046 2°54.997 -999 65 5.5 100980 91
2005-12-08 08:00:37 51°19.06 2°55.016 -999 67 5.5 100990 91
2005-12-08 08:00:42 51°19.074 2°55.034 -999 58 5.5 100990 91
2005-12-08 08:00:46 51°19.086 2°55.05 -999 55 5.5 100980 91
2005-12-08 08:00:52 51°19.103 2°55.072 -999 58 5.5 100980 91
2005-12-08 08:00:57 51°19.118 2°55.091 -999 60 5.6 100990 91
2005-12-08 08:01:02 51°19.132 2°55.11 -999 59 5.6 100990 91
2005-12-08 08:01:07 51°19.147 2°55.128 -999 57 5.6 100990 92
2005-12-08 08:01:12 51°19.161 2°55.148 -999 62 5.6 100990 92
2005-12-08 08:01:17 51°19.176 2°55.165 -999 62 5.6 100990 92
2005-12-08 08:01:22 51°19.19 2°55.185 -999 65 5.6 100990 92
2005-12-08 08:01:27 51°19.205 2°55.202 -999 61 5.6 100990 92
2005-12-08 08:01:32 51°19.219 2°55.222 -999 61 5.6 100990 92
2005-12-08 08:01:37 51°19.234 2°55.24 -999 53 5.5 100980 91
2005-12-08 08:01:42 51°19.248 2°55.259 -999 54 5.5 100980 91
2005-12-08 08:01:47 51°19.262 2°55.277 -999 56 5.5 100980 91
2005-12-08 08:01:52 51°19.277 2°55.296 -999 59 5.5 100980 91
2005-12-08 08:01:57 51°19.291 2°55.314 -999 64 5.5 100990 91
2005-12-08 08:02:02 51°19.306 2°55.332 -999 64 5.5 100990 91
2005-12-08 08:02:07 51°19.32 2°55.352 -999 53 5.5 100990 91
2005-12-08 08:02:12 51°19.335 2°55.37 -999 63 5.5 100990 91
2005-12-08 08:02:17 51°19.349 2°55.388 -999 59 5.5 100980 91
2005-12-08 08:02:22 51°19.363 2°55.407 -999 56 5.5 100980 91
2005-12-08 08:02:26 51°19.375 2°55.422 -999 58 5.5 100990 91
2005-12-08 08:02:32 51°19.393 2°55.444 -999 55 5.5 100990 91
2005-12-08 08:02:37 51°19.407 2°55.463 -999 66 5.5 100990 91
2005-12-08 08:02:42 51°19.422 2°55.481 -999 68 5.5 100990 91
2005-12-08 08:02:46 51°19.433 2°55.496 -999 66 5.5 101000 91
2005-12-08 08:02:52 51°19.451 2°55.518 -999 60 5.5 101000 91
2005-12-08 08:02:57 51°19.465 2°55.537 -999 63 5.5 100990 91
2005-12-08 08:03:01 51°19.477 2°55.551 -999 59 5.5 100990 91
2005-12-08 08:03:07 51°19.494 2°55.574 -999 61 5.5 101000 91
2005-12-08 08:03:12 51°19.509 2°55.592 -999 57 5.5 101000 91
2005-12-08 08:03:17 51°19.524 2°55.61 -999 61 5.5 101000 91
2005-12-08 08:03:22 51°19.538 2°55.628 -999 61 5.5 101000 91
2005-12-08 08:03:27 51°19.553 2°55.647 -999 57 5.6 101000 91
2005-12-08 08:03:32 51°19.567 2°55.665 -999 58 5.6 101000 91
2005-12-08 08:03:37 51°19.582 2°55.683 -999 69 5.5 100990 92
2005-12-08 08:03:42 51°19.596 2°55.701 -999 64 5.5 100990 92
2005-12-08 08:03:47 51°19.611 2°55.72 -999 59 5.6 100990 91
2005-12-08 08:03:52 51°19.626 2°55.737 -999 64 5.6 100990 91
2005-12-08 08:03:57 51°19.64 2°55.756 -999 60 5.6 100990 91
2005-12-08 08:04:02 51°19.655 2°55.774 -999 58 5.6 100990 91
2005-12-08 08:04:07 51°19.669 2°55.793 -999 58 5.6 101000 91
2005-12-08 08:04:12 51°19.684 2°55.81 -999 60 5.6 101000 91
2005-12-08 08:04:17 51°19.698 2°55.829 -999 60 5.5 101000 91
2005-12-08 08:04:22 51°19.713 2°55.847 -999 57 5.5 101000 91
2005-12-08 08:04:27 51°19.728 2°55.865 -999 66 5.5 101000 91
2005-12-08 08:04:32 51°19.742 2°55.883 -999 62 5.5 101000 91
2005-12-08 08:04:37 51°19.756 2°55.902 -999 63 5.5 100990 91
2005-12-08 08:04:42 51°19.771 2°55.92 -999 60 5.5 100990 91
2005-12-08 08:04:47 51°19.785 2°55.938 -999 63 5.5 100990 91
2005-12-08 08:04:52 51°19.8 2°55.957 -999 58 5.5 100990 91
2005-12-08 08:04:57 51°19.814 2°55.976 -999 56 5.5 101040 91
2005-12-08 08:05:02 51°19.829 2°55.994 -999 58 5.5 101040 91
2005-12-08 08:05:07 51°19.844 2°56.012 -999 59 5.5 100990 91
2005-12-08 08:05:12 51°19.858 2°56.03 -999 62 5.5 100990 91
2005-12-08 08:05:17 51°19.873 2°56.048 -999 64 5.6 101000 91
2005-12-08 08:05:22 51°19.887 2°56.066 -999 67 5.6 101000 91
2005-12-08 08:05:26 51°19.899 2°56.08 -999 71 5.6 100990 92
2005-12-08 08:05:32 51°19.916 2°56.102 -999 71 5.6 100990 92
2005-12-08 08:05:37 51°19.93 2°56.12 -999 68 5.6 100990 92
2005-12-08 08:05:42 51°19.944 2°56.139 -999 67 5.6 100990 92
2005-12-08 08:05:47 51°19.959 2°56.156 -999 68 5.6 100990 91
2005-12-08 08:05:52 51°19.973 2°56.175 -999 65 5.6 100990 91
2005-12-08 08:05:57 51°19.988 2°56.193 -999 55 5.5 100980 90
2005-12-08 08:06:02 51°20.001 2°56.212 -999 63 5.5 100980 90
2005-12-08 08:06:07 51°20.016 2°56.23 -999 63 5.5 100990 90
2005-12-08 08:06:12 51°20.03 2°56.249 -999 60 5.5 100990 90
2005-12-08 08:06:17 51°20.044 2°56.267 -999 47 5.5 100990 91
2005-12-08 08:06:22 51°20.058 2°56.288 -999 61 5.5 100990 91
2005-12-08 08:06:27 51°20.072 2°56.306 -999 60 5.6 100980 91
2005-12-08 08:06:32 51°20.086 2°56.325 -999 63 5.6 100980 91
2005-12-08 08:06:37 51°20.1 2°56.344 -999 57 5.6 100990 91
2005-12-08 08:06:42 51°20.114 2°56.363 -999 57 5.6 100990 91
2005-12-08 08:06:47 51°20.128 2°56.382 -999 59 5.6 100990 91
2005-12-08 08:06:52 51°20.142 2°56.401 -999 63 5.6 100990 91
2005-12-08 08:06:57 51°20.156 2°56.421 -999 59 5.6 101000 91
2005-12-08 08:07:02 51°20.17 2°56.439 -999 57 5.6 101000 91
2005-12-08 08:07:06 51°20.181 2°56.455 -999 67 5.5 101000 90
2005-12-08 08:07:12 51°20.197 2°56.477 -999 61 5.5 101000 90
2005-12-08 08:07:17 51°20.211 2°56.496 -999 61 5.5 101000 91
2005-12-08 08:07:22 51°20.225 2°56.516 -999 57 5.5 101000 91
2005-12-08 08:07:27 51°20.239 2°56.534 -999 65 5.6 101000 91
2005-12-08 08:07:32 51°20.253 2°56.554 -999 57 5.6 101000 91
2005-12-08 08:07:37 51°20.267 2°56.572 -999 65 5.6 101000 91
2005-12-08 08:07:42 51°20.281 2°56.592 -999 65 5.6 101000 91
2005-12-08 08:07:47 51°20.295 2°56.61 -999 62 5.5 100990 91
2005-12-08 08:07:52 51°20.309 2°56.63 -999 60 5.5 100990 91
2005-12-08 08:07:57 51°20.323 2°56.649 -999 62 5.6 100990 91
2005-12-08 08:08:02 51°20.337 2°56.668 -999 64 5.6 100990 91
2005-12-08 08:08:06 51°20.348 2°56.682 -999 61 5.6 101000 91
2005-12-08 08:08:12 51°20.365 2°56.706 -999 57 5.6 101000 91
2005-12-08 08:08:17 51°20.379 2°56.725 -999 61 5.6 101010 91
2005-12-08 08:08:22 51°20.393 2°56.744 -999 58 5.6 101010 91
2005-12-08 08:08:27 51°20.407 2°56.763 -999 58 5.6 101000 91
2005-12-08 08:08:32 51°20.421 2°56.782 -999 61 5.6 101000 91
2005-12-08 08:08:37 51°20.435 2°56.801 -999 62 5.6 100990 91
2005-12-08 08:08:41 51°20.446 2°56.816 -999 56 5.6 100990 91
2005-12-08 08:08:47 51°20.463 2°56.839 -999 58 5.6 101000 91
2005-12-08 08:08:52 51°20.477 2°56.858 -999 56 5.6 101000 91
2005-12-08 08:08:57 51°20.491 2°56.877 -999 54 5.6 101000 91
2005-12-08 08:09:02 51°20.505 2°56.897 -999 59 5.6 101000 91
2005-12-08 08:09:07 51°20.519 2°56.915 -999 61 5.6 101000 91
2005-12-08 08:09:12 51°20.532 2°56.935 -999 63 5.6 101000 91
2005-12-08 08:09:17 51°20.547 2°56.953 -999 60 5.6 101010 91
2005-12-08 08:09:22 51°20.561 2°56.973 -999 61 5.6 101010 91
2005-12-08 08:09:27 51°20.575 2°56.991 -999 63 5.6 101010 91
2005-12-08 08:09:32 51°20.589 2°57.01 -999 66 5.6 101010 91
2005-12-08 08:09:37 51°20.603 2°57.03 -999 53 5.6 101000 91
2005-12-08 08:09:41 51°20.614 2°57.045 -999 54 5.6 101000 91
2005-12-08 08:09:47 51°20.63 2°57.068 -999 57 5.6 101000 91
2005-12-08 08:09:52 51°20.645 2°57.086 -999 60 5.6 101000 91
2005-12-08 08:09:57 51°20.659 2°57.106 -999 55 5.6 101010 91
2005-12-08 08:10:02 51°20.673 2°57.124 -999 53 5.6 101010 91
2005-12-08 08:10:07 51°20.687 2°57.144 -999 54 5.6 101010 91
2005-12-08 08:10:12 51°20.701 2°57.162 -999 60 5.6 101010 91
2005-12-08 08:10:17 51°20.715 2°57.182 -999 55 5.6 101000 91
2005-12-08 08:10:22 51°20.729 2°57.2 -999 62 5.6 101000 91
2005-12-08 08:10:27 51°20.743 2°57.22 -999 53 5.6 101010 91
2005-12-08 08:10:32 51°20.758 2°57.239 -999 58 5.6 101010 91
2005-12-08 08:10:37 51°20.772 2°57.258 -999 52 5.6 101000 91
2005-12-08 08:10:42 51°20.786 2°57.276 -999 56 5.6 101000 91
2005-12-08 08:10:47 51°20.799 2°57.296 -999 53 5.6 101010 91
2005-12-08 08:10:52 51°20.814 2°57.315 -999 57 5.6 101010 91
2005-12-08 08:10:57 51°20.827 2°57.335 -999 51 5.6 101020 91
2005-12-08 08:11:02 51°20.842 2°57.353 -999 57 5.6 101020 91
2005-12-08 08:11:07 51°20.855 2°57.373 -999 56 5.6 101020 91
2005-12-08 08:11:12 51°20.87 2°57.391 -999 56 5.6 101020 91
2005-12-08 08:11:17 51°20.883 2°57.411 -999 56 5.5 101010 91
2005-12-08 08:11:22 51°20.898 2°57.43 -999 57 5.5 101010 91
2005-12-08 08:11:27 51°20.912 2°57.449 -999 58 5.5 101010 91
2005-12-08 08:11:32 51°20.926 2°57.468 -999 52 5.5 101010 91
2005-12-08 08:11:37 51°20.94 2°57.487 -999 51 5.5 101020 91
2005-12-08 08:11:42 51°20.954 2°57.506 -999 49 5.5 101020 91
2005-12-08 08:11:46 51°20.966 2°57.521 -999 44 5.5 101020 91
2005-12-08 08:11:52 51°20.982 2°57.545 -999 51 5.5 101020 91
2005-12-08 08:11:57 51°20.997 2°57.564 -999 53 5.6 101020 91
2005-12-08 08:12:02 51°21.011 2°57.583 -999 54 5.6 101020 91
2005-12-08 08:12:07 51°21.025 2°57.601 -999 53 5.6 101010 91
2005-12-08 08:12:12 51°21.039 2°57.621 -999 51 5.6 101010 91
2005-12-08 08:12:17 51°21.054 2°57.64 -999 49 5.6 101020 91
2005-12-08 08:12:22 51°21.067 2°57.659 -999 47 5.6 101020 91
2005-12-08 08:12:27 51°21.081 2°57.678 -999 54 5.6 101010 91
2005-12-08 08:12:32 51°21.096 2°57.697 -999 51 5.6 101010 91
2005-12-08 08:12:37 51°21.11 2°57.717 -999 51 5.6 101010 91
2005-12-08 08:12:42 51°21.125 2°57.736 -999 52 5.6 101010 91
2005-12-08 08:12:47 51°21.138 2°57.755 -999 57 5.6 101020 91
2005-12-08 08:12:52 51°21.153 2°57.774 -999 59 5.6 101020 91
2005-12-08 08:12:57 51°21.167 2°57.794 -999 54 5.6 101010 91
2005-12-08 08:13:02 51°21.182 2°57.813 -999 50 5.6 101010 91
2005-12-08 08:13:06 51°21.193 2°57.829 -999 54 5.5 101020 91
2005-12-08 08:13:12 51°21.21 2°57.852 -999 48 5.5 101020 91
2005-12-08 08:13:17 51°21.224 2°57.872 -999 52 5.6 101030 91
2005-12-08 08:13:22 51°21.238 2°57.891 -999 49 5.6 101030 91
2005-12-08 08:13:27 51°21.252 2°57.911 -999 51 5.5 101020 91
2005-12-08 08:13:32 51°21.266 2°57.93 -999 50 5.5 101020 91
2005-12-08 08:13:37 51°21.28 2°57.949 -999 53 5.5 101020 91
2005-12-08 08:13:42 51°21.294 2°57.968 -999 54 5.5 101020 91
2005-12-08 08:13:47 51°21.308 2°57.988 -999 50 5.6 101020 91
2005-12-08 08:13:52 51°21.323 2°58.007 -999 54 5.6 101020 91
2005-12-08 08:13:57 51°21.337 2°58.027 -999 51 5.6 101030 91
2005-12-08 08:14:02 51°21.351 2°58.046 -999 47 5.6 101030 91
2005-12-08 08:14:06 51°21.362 2°58.062 -999 57 5.6 101020 91
2005-12-08 08:14:12 51°21.379 2°58.085 -999 54 5.6 101020 91
2005-12-08 08:14:17 51°21.393 2°58.104 -999 56 5.5 101020 91
2005-12-08 08:14:22 51°21.408 2°58.123 -999 56 5.5 101020 91
2005-12-08 08:14:26 51°21.419 2°58.139 -999 56 5.5 101020 91
2005-12-08 08:14:32 51°21.436 2°58.162 -999 49 5.5 101020 91
2005-12-08 08:14:37 51°21.45 2°58.182 -999 48 5.5 101010 91
2005-12-08 08:14:42 51°21.465 2°58.201 -999 55 5.5 101010 91
2005-12-08 08:14:47 51°21.478 2°58.222 -999 57 5.5 101030 91
2005-12-08 08:14:52 51°21.492 2°58.241 -999 48 5.5 101030 91
2005-12-08 08:14:57 51°21.505 2°58.262 -999 54 5.6 101030 91
2005-12-08 08:15:02 51°21.519 2°58.283 -999 48 5.6 101030 91
2005-12-08 08:15:07 51°21.532 2°58.304 -999 50 5.6 101030 91
2005-12-08 08:15:12 51°21.546 2°58.324 -999 47 5.6 101030 91
2005-12-08 08:15:17 51°21.559 2°58.346 -999 50 5.5 101020 91
2005-12-08 08:15:22 51°21.572 2°58.366 -999 49 5.5 101020 91
2005-12-08 08:15:27 51°21.585 2°58.388 -999 47 5.5 101020 91
2005-12-08 08:15:32 51°21.599 2°58.409 -999 53 5.5 101020 91
2005-12-08 08:15:37 51°21.612 2°58.429 -999 55 5.5 101020 91
2005-12-08 08:15:42 51°21.626 2°58.45 -999 49 5.5 101020 91
2005-12-08 08:15:47 51°21.639 2°58.471 -999 53 5.5 101060 91
2005-12-08 08:15:52 51°21.652 2°58.492 -999 50 5.5 101060 91
2005-12-08 08:15:57 51°21.665 2°58.514 -999 53 5.5 101020 91
2005-12-08 08:16:02 51°21.679 2°58.534 -999 51 5.5 101020 91
2005-12-08 08:16:07 51°21.692 2°58.556 -999 51 5.5 101020 91
2005-12-08 08:16:12 51°21.706 2°58.576 -999 50 5.5 101020 91
2005-12-08 08:16:17 51°21.718 2°58.598 -999 51 5.5 101030 91
2005-12-08 08:16:22 51°21.732 2°58.619 -999 53 5.5 101030 91
2005-12-08 08:16:27 51°21.745 2°58.64 -999 49 5.5 101030 91
2005-12-08 08:16:32 51°21.758 2°58.661 -999 53 5.5 101030 91
2005-12-08 08:16:37 51°21.772 2°58.683 -999 58 5.5 101030 91
2005-12-08 08:16:42 51°21.785 2°58.704 -999 53 5.5 101030 91
2005-12-08 08:16:46 51°21.795 2°58.721 -999 51 5.5 101030 91
2005-12-08 08:16:52 51°21.811 2°58.746 -999 58 5.5 101030 91
2005-12-08 08:16:57 51°21.825 2°58.767 -999 58 5.5 101030 91
2005-12-08 08:17:02 51°21.838 2°58.788 -999 55 5.5 101030 91
2005-12-08 08:17:07 51°21.851 2°58.81 -999 51 5.5 101030 91
2005-12-08 08:17:12 51°21.865 2°58.831 -999 54 5.5 101030 91
2005-12-08 08:17:17 51°21.878 2°58.853 -999 53 5.5 101030 90
2005-12-08 08:17:22 51°21.891 2°58.874 -999 53 5.5 101030 90
2005-12-08 08:17:27 51°21.904 2°58.896 -999 51 5.5 101040 91
2005-12-08 08:17:32 51°21.918 2°58.917 -999 46 5.5 101040 91
2005-12-08 08:17:36 51°21.928 2°58.935 -999 50 5.6 101040 91
2005-12-08 08:17:42 51°21.944 2°58.959 -999 51 5.6 101040 91
2005-12-08 08:17:47 51°21.957 2°58.981 -999 52 5.6 101040 91
2005-12-08 08:17:52 51°21.971 2°59.002 -999 51 5.6 101040 91
2005-12-08 08:17:57 51°21.984 2°59.023 -999 50 5.6 101040 91
2005-12-08 08:18:02 51°21.997 2°59.045 -999 49 5.6 101040 91
2005-12-08 08:18:06 51°22.008 2°59.061 -999 47 5.5 101040 91
2005-12-08 08:18:12 51°22.024 2°59.088 -999 50 5.5 101040 91
2005-12-08 08:18:17 51°22.038 2°59.108 -999 50 5.5 101040 91
2005-12-08 08:18:22 51°22.051 2°59.13 -999 51 5.5 101040 91
2005-12-08 08:18:27 51°22.064 2°59.151 -999 44 5.5 101040 91
2005-12-08 08:18:32 51°22.078 2°59.172 -999 51 5.5 101040 91
2005-12-08 08:18:37 51°22.091 2°59.193 -999 49 5.5 101040 91
2005-12-08 08:18:42 51°22.104 2°59.214 -999 52 5.5 101040 91
2005-12-08 08:18:46 51°22.115 2°59.232 -999 50 5.6 101040 91
2005-12-08 08:18:52 51°22.131 2°59.257 -999 53 5.6 101040 91
2005-12-08 08:18:57 51°22.144 2°59.278 -999 53 5.5 101030 91
2005-12-08 08:19:02 51°22.157 2°59.299 -999 55 5.5 101030 91
2005-12-08 08:19:06 51°22.168 2°59.316 -999 54 5.6 101040 91
2005-12-08 08:19:12 51°22.185 2°59.341 -999 48 5.6 101040 91
2005-12-08 08:19:17 51°22.198 2°59.363 -999 51 5.6 101040 91
2005-12-08 08:19:22 51°22.212 2°59.384 -999 49 5.6 101040 91
2005-12-08 08:19:27 51°22.225 2°59.405 -999 55 5.6 101050 91
2005-12-08 08:19:32 51°22.238 2°59.427 -999 49 5.6 101050 91
2005-12-08 08:19:37 51°22.251 2°59.448 -999 49 5.6 101050 92
2005-12-08 08:19:42 51°22.264 2°59.47 -999 50 5.6 101050 92
2005-12-08 08:19:47 51°22.278 2°59.49 -999 52 5.6 101040 92
2005-12-08 08:19:52 51°22.29 2°59.512 -999 55 5.6 101040 92
2005-12-08 08:19:57 51°22.304 2°59.533 -999 46 5.6 101040 92
2005-12-08 08:20:02 51°22.317 2°59.554 -999 53 5.6 101040 92
2005-12-08 08:20:07 51°22.331 2°59.575 -999 50 5.5 101030 92
2005-12-08 08:20:12 51°22.344 2°59.596 -999 50 5.5 101030 92
2005-12-08 08:20:17 51°22.357 2°59.617 -999 52 5.5 101040 91
2005-12-08 08:20:22 51°22.37 2°59.639 -999 50 5.5 101040 91
2005-12-08 08:20:27 51°22.384 2°59.659 -999 50 5.5 101030 91
2005-12-08 08:20:32 51°22.397 2°59.681 -999 51 5.5 101030 91
2005-12-08 08:20:37 51°22.41 2°59.702 -999 51 5.5 101040 91
2005-12-08 08:20:42 51°22.423 2°59.723 -999 56 5.5 101040 91
2005-12-08 08:20:47 51°22.437 2°59.743 -999 55 5.5 101030 91
2005-12-08 08:20:52 51°22.45 2°59.764 -999 55 5.5 101030 91
2005-12-08 08:20:57 51°22.463 2°59.786 -999 56 5.5 101060 91
2005-12-08 08:21:02 51°22.477 2°59.807 -999 54 5.5 101060 91
2005-12-08 08:21:06 51°22.488 2°59.823 -999 52 5.5 101040 91
2005-12-08 08:21:12 51°22.503 2°59.849 -999 54 5.5 101040 91
2005-12-08 08:21:17 51°22.518 2°59.87 -999 55 5.5 101040 91
2005-12-08 08:21:22 51°22.531 2°59.891 -999 47 5.5 101040 91
2005-12-08 08:21:27 51°22.545 2°59.912 -999 51 5.5 101040 91
2005-12-08 08:21:32 51°22.558 2°59.933 -999 53 5.5 101040 91
2005-12-08 08:21:37 51°22.572 2°59.955 -999 50 5.5 101050 91
2005-12-08 08:21:42 51°22.585 2°59.976 -999 51 5.5 101050 91
2005-12-08 08:21:47 51°22.598 2°59.997 -999 52 5.5 101050 91
2005-12-08 08:21:52 51°22.611 3°0.019 -999 50 5.5 101050 91
2005-12-08 08:21:57 51°22.625 3°0.04 -999 50 5.5 101040 92
2005-12-08 08:22:02 51°22.638 3°0.061 -999 52 5.5 101040 92
2005-12-08 08:22:07 51°22.652 3°0.082 -999 49 5.5 101080 91
2005-12-08 08:22:12 51°22.665 3°0.104 -999 -999 5.5 101080 91
2005-12-08 08:22:17 51°22.679 3°0.125 -999 52 5.5 101050 91
2005-12-08 08:22:22 51°22.692 3°0.146 -999 50 5.5 101050 91
2005-12-08 08:22:26 51°22.702 3°0.163 -999 50 5.5 101050 91
2005-12-08 08:22:32 51°22.719 3°0.189 -999 48 5.5 101050 91
2005-12-08 08:22:37 51°22.732 3°0.21 -999 51 5.5 101030 91
2005-12-08 08:22:42 51°22.746 3°0.232 -999 57 5.5 101030 91
2005-12-08 08:22:47 51°22.759 3°0.253 -999 56 5.5 101050 91
2005-12-08 08:22:52 51°22.772 3°0.275 -999 48 5.5 101050 91
2005-12-08 08:22:57 51°22.785 3°0.295 -999 51 5.5 101050 91
2005-12-08 08:23:02 51°22.799 3°0.317 -999 56 5.5 101050 91
2005-12-08 08:23:07 51°22.812 3°0.338 -999 53 5.5 101040 91
2005-12-08 08:23:12 51°22.826 3°0.359 -999 57 5.5 101040 91
2005-12-08 08:23:17 51°22.839 3°0.38 -999 50 5.5 101050 91
2005-12-08 08:23:22 51°22.852 3°0.401 -999 47 5.5 101050 91
2005-12-08 08:23:26 51°22.863 3°0.419 -999 54 5.5 101040 91
2005-12-08 08:23:33 51°22.882 3°0.448 -999 50 5.5 101040 91
2005-12-08 08:23:37 51°22.892 3°0.465 -999 49 5.5 101050 91
2005-12-08 08:23:42 51°22.905 3°0.487 -999 56 5.5 101050 91
2005-12-08 08:23:47 51°22.919 3°0.508 -999 50 5.4 101040 91
2005-12-08 08:23:52 51°22.932 3°0.529 -999 58 5.4 101040 91
2005-12-08 08:23:57 51°22.945 3°0.55 -999 52 5.5 101060 91
2005-12-08 08:24:02 51°22.959 3°0.571 -999 52 5.5 101060 91
2005-12-08 08:24:07 51°22.972 3°0.593 -999 53 5.4 101040 91
2005-12-08 08:24:12 51°22.986 3°0.614 -999 55 5.4 101040 91
2005-12-08 08:24:17 51°22.999 3°0.635 -999 57 5.4 101050 91
2005-12-08 08:24:22 51°23.013 3°0.656 -999 58 5.4 101050 91
2005-12-08 08:24:27 51°23.026 3°0.678 -999 56 5.4 101040 91
2005-12-08 08:24:32 51°23.039 3°0.699 -999 57 5.4 101040 91
2005-12-08 08:24:37 51°23.052 3°0.72 -999 47 5.4 101040 91
2005-12-08 08:24:42 51°23.066 3°0.742 -999 50 5.4 101040 91
2005-12-08 08:24:47 51°23.079 3°0.763 -999 50 5.4 101040 90
2005-12-08 08:24:52 51°23.092 3°0.785 -999 55 5.4 101040 90
2005-12-08 08:24:57 51°23.106 3°0.806 -999 58 5.4 101050 91
2005-12-08 08:25:02 51°23.119 3°0.827 -999 56 5.4 101050 91
2005-12-08 08:25:07 51°23.132 3°0.848 -999 57 5.4 101050 91
2005-12-08 08:25:12 51°23.146 3°0.869 -999 59 5.4 101050 91
2005-12-08 08:25:17 51°23.16 3°0.89 -999 56 5.4 101050 91
2005-12-08 08:25:22 51°23.174 3°0.91 -999 54 5.4 101050 91
2005-12-08 08:25:27 51°23.188 3°0.931 -999 56 5.4 101050 91
2005-12-08 08:25:32 51°23.202 3°0.951 -999 54 5.4 101050 91
2005-12-08 08:25:37 51°23.216 3°0.972 -999 56 5.4 101050 91
2005-12-08 08:25:42 51°23.23 3°0.992 -999 56 5.4 101050 91
2005-12-08 08:25:47 51°23.244 3°1.012 -999 59 5.4 101060 91
2005-12-08 08:25:52 51°23.258 3°1.033 -999 60 5.4 101060 91
2005-12-08 08:25:57 51°23.271 3°1.053 -999 60 5.4 101060 91
2005-12-08 08:26:02 51°23.285 3°1.074 -999 61 5.4 101060 91
2005-12-08 08:26:07 51°23.299 3°1.094 -999 57 5.4 101060 91
2005-12-08 08:26:12 51°23.313 3°1.114 -999 50 5.4 101060 91
2005-12-08 08:26:17 51°23.327 3°1.135 -999 54 5.4 101050 91
2005-12-08 08:26:22 51°23.341 3°1.155 -999 52 5.4 101050 91
2005-12-08 08:26:27 51°23.355 3°1.176 -999 47 5.4 101050 91
2005-12-08 08:26:32 51°23.368 3°1.197 -999 55 5.4 101050 91
2005-12-08 08:26:37 51°23.383 3°1.217 -999 54 5.4 101050 91
2005-12-08 08:26:42 51°23.397 3°1.237 -999 57 5.4 101050 91
2005-12-08 08:26:47 51°23.411 3°1.257 -999 58 5.4 101040 91
2005-12-08 08:26:52 51°23.424 3°1.278 -999 55 5.4 101040 91
2005-12-08 08:26:57 51°23.438 3°1.299 -999 53 5.4 101040 91
2005-12-08 08:27:02 51°23.452 3°1.319 -999 56 5.4 101040 91
2005-12-08 08:27:07 51°23.466 3°1.339 -999 60 5.4 101040 90
2005-12-08 08:27:12 51°23.48 3°1.359 -999 66 5.4 101040 90
2005-12-08 08:27:17 51°23.493 3°1.38 -999 64 5.4 101030 91
2005-12-08 08:27:22 51°23.507 3°1.4 -999 55 5.4 101030 91
2005-12-08 08:27:27 51°23.521 3°1.421 -999 57 5.4 101040 91
2005-12-08 08:27:32 51°23.535 3°1.441 -999 58 5.4 101040 91
2005-12-08 08:27:37 51°23.549 3°1.461 -999 57 5.4 101040 91
2005-12-08 08:27:42 51°23.563 3°1.482 -999 62 5.4 101040 91
2005-12-08 08:27:47 51°23.576 3°1.502 -999 54 5.4 101040 91
2005-12-08 08:27:52 51°23.59 3°1.522 -999 57 5.4 101040 91
2005-12-08 08:27:57 51°23.604 3°1.543 -999 56 5.4 101030 90
2005-12-08 08:28:02 51°23.618 3°1.563 -999 53 5.4 101030 90
2005-12-08 08:28:07 51°23.632 3°1.583 -999 49 5.4 101050 90
2005-12-08 08:28:12 51°23.645 3°1.604 -999 51 5.4 101050 90
2005-12-08 08:28:17 51°23.66 3°1.624 -999 52 5.4 101050 90
2005-12-08 08:28:22 51°23.673 3°1.644 -999 55 5.4 101050 90
2005-12-08 08:28:27 51°23.688 3°1.664 -999 56 5.5 101050 90
2005-12-08 08:28:32 51°23.701 3°1.684 -999 54 5.5 101050 90
2005-12-08 08:28:37 51°23.715 3°1.704 -999 56 5.5 101050 90
2005-12-08 08:28:42 51°23.729 3°1.725 -999 53 5.5 101050 90
2005-12-08 08:28:47 51°23.743 3°1.745 -999 51 5.4 101050 90
2005-12-08 08:28:52 51°23.757 3°1.765 -999 53 5.4 101050 90
2005-12-08 08:28:57 51°23.77 3°1.786 -999 50 5.4 101060 90
2005-12-08 08:29:02 51°23.784 3°1.806 -999 59 5.4 101060 90
2005-12-08 08:29:06 51°23.795 3°1.822 -999 53 5.4 101050 90
2005-12-08 08:29:12 51°23.811 3°1.847 -999 55 5.4 101050 90
2005-12-08 08:29:17 51°23.825 3°1.867 -999 54 5.4 101050 90
2005-12-08 08:29:22 51°23.839 3°1.887 -999 55 5.4 101050 90
2005-12-08 08:29:27 51°23.853 3°1.908 -999 55 5.4 101060 90
2005-12-08 08:29:32 51°23.867 3°1.928 -999 53 5.4 101060 90
2005-12-08 08:29:37 51°23.88 3°1.949 -999 52 5.5 101060 90
2005-12-08 08:29:42 51°23.894 3°1.969 -999 56 5.5 101060 90
2005-12-08 08:29:47 51°23.908 3°1.989 -999 52 5.5 101060 90
2005-12-08 08:29:52 51°23.922 3°2.01 -999 54 5.5 101060 90
2005-12-08 08:29:57 51°23.935 3°2.03 -999 57 5.5 101060 90
2005-12-08 08:30:02 51°23.949 3°2.05 -999 58 5.5 101060 90
2005-12-08 08:30:07 51°23.963 3°2.071 -999 54 5.5 101060 90
2005-12-08 08:30:12 51°23.976 3°2.092 -999 49 5.5 101060 90
2005-12-08 08:30:17 51°23.991 3°2.111 -999 56 5.5 101050 90
2005-12-08 08:30:22 51°24.003 3°2.133 -999 55 5.5 101050 90
2005-12-08 08:30:27 51°24.018 3°2.153 -999 53 5.5 101050 90
2005-12-08 08:30:32 51°24.031 3°2.173 -999 47 5.5 101050 90
2005-12-08 08:30:37 51°24.045 3°2.194 -999 52 5.5 101050 90
2005-12-08 08:30:42 51°24.059 3°2.214 -999 53 5.5 101050 90
2005-12-08 08:30:47 51°24.073 3°2.234 -999 57 5.5 101060 90
2005-12-08 08:30:52 51°24.086 3°2.254 -999 55 5.5 101060 90
2005-12-08 08:30:57 51°24.1 3°2.275 -999 55 5.5 101050 90
2005-12-08 08:31:02 51°24.114 3°2.295 -999 51 5.5 101050 90
2005-12-08 08:31:07 51°24.128 3°2.316 -999 47 5.5 101050 90
2005-12-08 08:31:12 51°24.142 3°2.336 -999 50 5.5 101050 90
2005-12-08 08:31:17 51°24.156 3°2.356 -999 51 5.4 101060 90
2005-12-08 08:31:22 51°24.17 3°2.376 -999 51 5.4 101060 90
2005-12-08 08:31:27 51°24.183 3°2.397 -999 51 5.5 101070 90
2005-12-08 08:31:32 51°24.197 3°2.417 -999 51 5.5 101070 90
2005-12-08 08:31:37 51°24.211 3°2.437 -999 49 5.5 101060 90
2005-12-08 08:31:42 51°24.225 3°2.457 -999 55 5.5 101060 90
2005-12-08 08:31:47 51°24.239 3°2.478 -999 54 5.5 101060 90
2005-12-08 08:31:52 51°24.253 3°2.498 -999 50 5.5 101060 90
2005-12-08 08:31:57 51°24.266 3°2.519 -999 53 5.5 101060 90
2005-12-08 08:32:02 51°24.28 3°2.539 -999 50 5.5 101060 90
2005-12-08 08:32:07 51°24.294 3°2.56 -999 50 5.4 101060 90
2005-12-08 08:32:12 51°24.307 3°2.58 -999 52 5.4 101060 90
2005-12-08 08:32:17 51°24.321 3°2.601 -999 50 5.5 101060 90
2005-12-08 08:32:22 51°24.335 3°2.621 -999 53 5.5 101060 90
2005-12-08 08:32:27 51°24.348 3°2.642 -999 57 5.4 101070 90
2005-12-08 08:32:33 51°24.365 3°2.666 -999 55 5.4 101070 90
2005-12-08 08:32:37 51°24.376 3°2.683 -999 52 5.5 101060 90
2005-12-08 08:32:42 51°24.39 3°2.703 -999 44 5.5 101060 90
2005-12-08 08:32:47 51°24.404 3°2.724 -999 51 5.5 101070 90
2005-12-08 08:32:53 51°24.42 3°2.748 -999 51 5.5 101070 90
2005-12-08 08:32:57 51°24.431 3°2.765 -999 53 5.5 101070 90
2005-12-08 08:33:02 51°24.445 3°2.786 -999 49 5.5 101070 90
2005-12-08 08:33:06 51°24.456 3°2.802 -999 53 5.5 101060 90
2005-12-08 08:33:12 51°24.473 3°2.826 -999 52 5.5 101060 90
2005-12-08 08:33:17 51°24.487 3°2.847 -999 53 5.5 101060 90
2005-12-08 08:33:22 51°24.501 3°2.867 -999 54 5.5 101060 90
2005-12-08 08:33:27 51°24.514 3°2.887 -999 55 5.5 101070 90
2005-12-08 08:33:32 51°24.528 3°2.907 -999 51 5.5 101070 90
2005-12-08 08:33:37 51°24.542 3°2.928 -999 56 5.5 101070 90
2005-12-08 08:33:42 51°24.555 3°2.948 -999 52 5.5 101070 90
2005-12-08 08:33:47 51°24.57 3°2.967 -999 52 5.5 101060 91
2005-12-08 08:33:51 51°24.58 3°2.984 -999 51 5.5 101060 91
2005-12-08 08:33:57 51°24.597 3°3.008 -999 51 5.5 101060 91
2005-12-08 08:34:02 51°24.61 3°3.029 -999 53 5.5 101060 91
2005-12-08 08:34:07 51°24.624 3°3.049 -999 58 5.5 101060 91
2005-12-08 08:34:12 51°24.638 3°3.07 -999 54 5.5 101060 91
2005-12-08 08:34:17 51°24.651 3°3.09 -999 55 5.5 101070 90
2005-12-08 08:34:22 51°24.664 3°3.111 -999 54 5.5 101070 90
2005-12-08 08:34:27 51°24.679 3°3.131 -999 53 5.5 101060 90
2005-12-08 08:34:32 51°24.692 3°3.152 -999 52 5.5 101060 90
2005-12-08 08:34:37 51°24.706 3°3.172 -999 48 5.5 101060 90
2005-12-08 08:34:42 51°24.72 3°3.192 -999 56 5.5 101060 90
2005-12-08 08:34:47 51°24.733 3°3.213 -999 59 5.5 101070 91
2005-12-08 08:34:52 51°24.747 3°3.232 -999 57 5.5 101070 91
2005-12-08 08:34:57 51°24.761 3°3.252 -999 58 5.5 101070 91
2005-12-08 08:35:02 51°24.775 3°3.272 -999 56 5.5 101070 91
2005-12-08 08:35:07 51°24.789 3°3.291 -999 57 5.5 101070 91
2005-12-08 08:35:12 51°24.803 3°3.311 -999 59 5.5 101070 91
2005-12-08 08:35:17 51°24.816 3°3.331 -999 59 5.5 101080 90
2005-12-08 08:35:22 51°24.83 3°3.351 -999 57 5.5 101080 90
2005-12-08 08:35:27 51°24.844 3°3.371 -999 58 5.5 101070 90
2005-12-08 08:35:32 51°24.858 3°3.39 -999 58 5.5 101070 90
2005-12-08 08:35:37 51°24.872 3°3.41 -999 52 5.5 101080 91
2005-12-08 08:35:42 51°24.886 3°3.43 -999 53 5.5 101080 91
2005-12-08 08:35:47 51°24.9 3°3.45 -999 54 5.5 101070 90
2005-12-08 08:35:52 51°24.914 3°3.47 -999 54 5.5 101070 90
2005-12-08 08:35:57 51°24.927 3°3.49 -999 51 5.5 101080 90
2005-12-08 08:36:02 51°24.941 3°3.511 -999 53 5.5 101080 90
2005-12-08 08:36:07 51°24.954 3°3.532 -999 50 5.5 101080 90
2005-12-08 08:36:12 51°24.968 3°3.554 -999 51 5.5 101080 90
2005-12-08 08:36:17 51°24.981 3°3.574 -999 57 5.5 101110 90
2005-12-08 08:36:22 51°24.995 3°3.595 -999 53 5.5 101110 90
2005-12-08 08:36:27 51°25.009 3°3.616 -999 49 5.5 101110 90
2005-12-08 08:36:32 51°25.023 3°3.636 -999 56 5.5 101110 90
2005-12-08 08:36:37 51°25.037 3°3.656 -999 56 5.5 101100 90
2005-12-08 08:36:42 51°25.05 3°3.677 -999 59 5.5 101100 90
2005-12-08 08:36:47 51°25.064 3°3.697 -999 62 5.5 101120 90
2005-12-08 08:36:52 51°25.078 3°3.718 -999 61 5.5 101120 90
2005-12-08 08:36:57 51°25.092 3°3.738 -999 55 5.5 101110 90
2005-12-08 08:37:02 51°25.106 3°3.759 -999 53 5.5 101110 90
2005-12-08 08:37:07 51°25.12 3°3.78 -999 52 5.5 101110 90
2005-12-08 08:37:12 51°25.134 3°3.801 -999 49 5.5 101110 90
2005-12-08 08:37:17 51°25.147 3°3.822 -999 45 5.5 101110 90
2005-12-08 08:37:22 51°25.161 3°3.843 -999 54 5.5 101110 90
2005-12-08 08:37:27 51°25.175 3°3.864 -999 50 5.5 101120 90
2005-12-08 08:37:32 51°25.189 3°3.884 -999 53 5.5 101120 90
2005-12-08 08:37:37 51°25.203 3°3.904 -999 55 5.5 101120 90
2005-12-08 08:37:42 51°25.217 3°3.925 -999 50 5.5 101120 90
2005-12-08 08:37:47 51°25.231 3°3.946 -999 53 5.5 101120 90
2005-12-08 08:37:52 51°25.245 3°3.966 -999 52 5.5 101120 90
2005-12-08 08:37:56 51°25.256 3°3.983 -999 53 5.5 101110 90
2005-12-08 08:38:02 51°25.273 3°4.008 -999 48 5.5 101110 90
2005-12-08 08:38:07 51°25.287 3°4.028 -999 50 5.5 101110 90
2005-12-08 08:38:12 51°25.301 3°4.048 -999 56 5.5 101110 90
2005-12-08 08:38:17 51°25.315 3°4.068 -999 51 5.5 101120 90
2005-12-08 08:38:22 51°25.329 3°4.09 -999 52 5.5 101120 90
2005-12-08 08:38:27 51°25.343 3°4.11 -999 47 5.5 101120 90
2005-12-08 08:38:32 51°25.356 3°4.13 -999 45 5.5 101120 90
2005-12-08 08:38:37 51°25.37 3°4.151 -999 50 5.5 101120 90
2005-12-08 08:38:42 51°25.384 3°4.172 -999 54 5.5 101120 90
2005-12-08 08:38:47 51°25.398 3°4.192 -999 51 5.5 101080 90
2005-12-08 08:38:52 51°25.412 3°4.212 -999 52 5.5 101080 90
2005-12-08 08:38:57 51°25.425 3°4.233 -999 54 5.5 101090 90
2005-12-08 08:39:02 51°25.44 3°4.254 -999 48 5.5 101090 90
2005-12-08 08:39:07 51°25.454 3°4.274 -999 48 5.5 101080 89
2005-12-08 08:39:12 51°25.467 3°4.294 -999 44 5.5 101080 89
2005-12-08 08:39:17 51°25.481 3°4.315 -999 48 5.5 101090 89
2005-12-08 08:39:22 51°25.495 3°4.335 -999 43 5.5 101090 89
2005-12-08 08:39:26 51°25.506 3°4.352 -999 50 5.5 101090 89
2005-12-08 08:39:32 51°25.523 3°4.376 -999 44 5.5 101090 89
2005-12-08 08:39:37 51°25.537 3°4.397 -999 46 5.5 101100 89
2005-12-08 08:39:42 51°25.551 3°4.417 -999 45 5.5 101100 89
2005-12-08 08:39:47 51°25.565 3°4.437 -999 48 5.5 101090 89
2005-12-08 08:39:52 51°25.578 3°4.458 -999 44 5.5 101090 89
2005-12-08 08:39:57 51°25.592 3°4.478 -999 49 5.5 101090 89
2005-12-08 08:40:02 51°25.606 3°4.499 -999 50 5.5 101090 89
2005-12-08 08:40:07 51°25.62 3°4.519 -999 50 5.5 101090 89
2005-12-08 08:40:12 51°25.634 3°4.54 -999 45 5.5 101090 89
2005-12-08 08:40:17 51°25.648 3°4.56 -999 43 5.5 101100 89
2005-12-08 08:40:22 51°25.662 3°4.581 -999 51 5.5 101100 89
2005-12-08 08:40:27 51°25.676 3°4.601 -999 52 5.5 101100 89
2005-12-08 08:40:32 51°25.69 3°4.621 -999 50 5.5 101100 89
2005-12-08 08:40:37 51°25.704 3°4.642 -999 44 5.6 101090 89
2005-12-08 08:40:42 51°25.718 3°4.662 -999 47 5.6 101090 89
2005-12-08 08:40:47 51°25.732 3°4.683 -999 44 5.6 101100 89
2005-12-08 08:40:52 51°25.746 3°4.703 -999 45 5.6 101100 89
2005-12-08 08:40:57 51°25.76 3°4.723 -999 51 5.6 101090 89
2005-12-08 08:41:02 51°25.774 3°4.744 -999 50 5.6 101090 89
2005-12-08 08:41:07 51°25.788 3°4.764 -999 53 5.6 101100 89
2005-12-08 08:41:12 51°25.802 3°4.784 -999 47 5.6 101100 89
2005-12-08 08:41:17 51°25.815 3°4.805 -999 50 5.6 101100 89
2005-12-08 08:41:22 51°25.829 3°4.825 -999 49 5.6 101100 89
2005-12-08 08:41:27 51°25.843 3°4.846 -999 45 5.6 101090 89
2005-12-08 08:41:32 51°25.857 3°4.866 -999 46 5.6 101090 89
2005-12-08 08:41:37 51°25.871 3°4.886 -999 51 5.6 101100 89
2005-12-08 08:41:42 51°25.885 3°4.907 -999 51 5.6 101100 89
2005-12-08 08:41:47 51°25.899 3°4.927 -999 45 5.6 101110 89
2005-12-08 08:41:52 51°25.913 3°4.948 -999 44 5.6 101110 89
2005-12-08 08:41:57 51°25.927 3°4.968 -999 50 5.6 101110 90
2005-12-08 08:42:02 51°25.941 3°4.989 -999 52 5.6 101110 90
2005-12-08 08:42:07 51°25.956 3°5.008 -999 43 5.6 101100 90
2005-12-08 08:42:12 51°25.969 3°5.029 -999 49 5.6 101100 90
2005-12-08 08:42:17 51°25.983 3°5.048 -999 49 5.6 101100 90
2005-12-08 08:42:22 51°25.998 3°5.069 -999 47 5.6 101100 90
2005-12-08 08:42:26 51°26.009 3°5.085 -999 47 5.6 101090 89
2005-12-08 08:42:32 51°26.026 3°5.109 -999 48 5.6 101090 89
2005-12-08 08:42:37 51°26.04 3°5.129 -999 51 5.6 101100 89
2005-12-08 08:42:42 51°26.054 3°5.149 -999 51 5.6 101100 89
2005-12-08 08:42:47 51°26.068 3°5.169 -999 44 5.6 101100 89
2005-12-08 08:42:52 51°26.082 3°5.189 -999 46 5.6 101100 89
2005-12-08 08:42:57 51°26.096 3°5.209 -999 44 5.6 101110 89
2005-12-08 08:43:02 51°26.11 3°5.229 -999 47 5.6 101110 89
2005-12-08 08:43:07 51°26.125 3°5.249 -999 46 5.6 101110 89
2005-12-08 08:43:12 51°26.138 3°5.27 -999 -999 5.6 101110 89
2005-12-08 08:43:17 51°26.153 3°5.29 -999 47 5.6 101110 89
2005-12-08 08:43:22 51°26.166 3°5.31 -999 43 5.6 101110 89
2005-12-08 08:43:27 51°26.18 3°5.331 -999 44 5.6 101100 89
2005-12-08 08:43:32 51°26.195 3°5.351 -999 45 5.6 101100 89
2005-12-08 08:43:37 51°26.208 3°5.37 -999 40 5.6 101100 89
2005-12-08 08:43:42 51°26.222 3°5.391 -999 36 5.6 101100 89
2005-12-08 08:43:46 51°26.234 3°5.407 -999 46 5.6 101110 89
2005-12-08 08:43:52 51°26.251 3°5.431 -999 48 5.6 101110 89
2005-12-08 08:43:57 51°26.265 3°5.451 -999 44 5.6 101110 90
2005-12-08 08:44:02 51°26.279 3°5.471 -999 42 5.6 101110 90
2005-12-08 08:44:07 51°26.293 3°5.491 -999 41 5.6 101100 90
2005-12-08 08:44:12 51°26.307 3°5.512 -999 40 5.6 101100 90
2005-12-08 08:44:17 51°26.321 3°5.531 -999 39 5.6 101110 90
2005-12-08 08:44:22 51°26.335 3°5.552 -999 42 5.6 101110 90
2005-12-08 08:44:27 51°26.349 3°5.571 -999 41 5.6 101100 89
2005-12-08 08:44:32 51°26.362 3°5.592 -999 40 5.6 101100 89
2005-12-08 08:44:37 51°26.376 3°5.612 -999 38 5.6 101110 90
2005-12-08 08:44:42 51°26.391 3°5.633 -999 40 5.6 101110 90
2005-12-08 08:44:47 51°26.405 3°5.653 -999 42 5.6 101120 90
2005-12-08 08:44:52 51°26.418 3°5.672 -999 41 5.6 101120 90
2005-12-08 08:44:57 51°26.432 3°5.692 -999 39 5.6 101110 90
2005-12-08 08:45:02 51°26.446 3°5.713 -999 44 5.6 101110 90
2005-12-08 08:45:06 51°26.458 3°5.73 -999 36 5.6 101120 90
2005-12-08 08:45:12 51°26.475 3°5.753 -999 40 5.6 101120 90
2005-12-08 08:45:17 51°26.488 3°5.774 -999 44 5.6 101120 90
2005-12-08 08:45:22 51°26.502 3°5.793 -999 43 5.6 101120 90
2005-12-08 08:45:27 51°26.516 3°5.814 -999 34 5.6 101110 90
2005-12-08 08:45:32 51°26.53 3°5.835 -999 37 5.6 101110 90
2005-12-08 08:45:37 51°26.544 3°5.854 -999 42 5.6 101130 90
2005-12-08 08:45:42 51°26.558 3°5.874 -999 43 5.6 101130 90
2005-12-08 08:45:47 51°26.572 3°5.894 -999 40 5.6 101120 90
2005-12-08 08:45:52 51°26.585 3°5.915 -999 43 5.6 101120 90
2005-12-08 08:45:57 51°26.6 3°5.934 -999 48 5.6 101130 90
2005-12-08 08:46:02 51°26.614 3°5.954 -999 43 5.6 101130 90
2005-12-08 08:46:07 51°26.628 3°5.974 -999 48 5.6 101120 90
2005-12-08 08:46:12 51°26.642 3°5.994 -999 44 5.6 101120 90
2005-12-08 08:46:17 51°26.656 3°6.014 -999 42 5.6 101120 90
2005-12-08 08:46:22 51°26.67 3°6.034 -999 37 5.6 101120 90
2005-12-08 08:46:27 51°26.683 3°6.054 -999 44 5.6 101120 90
2005-12-08 08:46:32 51°26.697 3°6.074 -999 45 5.6 101120 90
2005-12-08 08:46:37 51°26.711 3°6.094 -999 44 5.6 101120 90
2005-12-08 08:46:42 51°26.725 3°6.114 -999 48 5.6 101120 90
2005-12-08 08:46:47 51°26.739 3°6.134 -999 44 5.6 101130 90
2005-12-08 08:46:52 51°26.753 3°6.154 -999 38 5.6 101130 90
2005-12-08 08:46:57 51°26.767 3°6.174 -999 43 5.6 101120 90
2005-12-08 08:47:02 51°26.781 3°6.194 -999 44 5.6 101120 90
2005-12-08 08:47:07 51°26.795 3°6.214 -999 42 5.6 101120 90
2005-12-08 08:47:12 51°26.809 3°6.234 -999 39 5.6 101120 90
2005-12-08 08:47:17 51°26.823 3°6.254 -999 37 5.6 101130 90
2005-12-08 08:47:22 51°26.837 3°6.275 -999 44 5.6 101130 90
2005-12-08 08:47:27 51°26.851 3°6.294 -999 43 5.6 101120 90
2005-12-08 08:47:32 51°26.864 3°6.315 -999 34 5.6 101120 90
2005-12-08 08:47:37 51°26.879 3°6.334 -999 32 5.7 101130 90
2005-12-08 08:47:42 51°26.892 3°6.355 -999 39 5.7 101130 90
2005-12-08 08:47:47 51°26.907 3°6.373 -999 41 5.6 101120 90
2005-12-08 08:47:52 51°26.92 3°6.394 -999 40 5.6 101120 90
2005-12-08 08:47:57 51°26.934 3°6.414 -999 43 5.6 101130 90
2005-12-08 08:48:02 51°26.949 3°6.433 -999 41 5.6 101130 90
2005-12-08 08:48:07 51°26.962 3°6.453 -999 38 5.7 101130 90
2005-12-08 08:48:12 51°26.976 3°6.471 -999 47 5.7 101130 90
2005-12-08 08:48:17 51°26.99 3°6.492 -999 46 5.7 101130 90
2005-12-08 08:48:22 51°27.004 3°6.511 -999 43 5.7 101130 90
2005-12-08 08:48:27 51°27.018 3°6.532 -999 40 5.7 101130 90